AirNav   Pilot Hours Calculator
 
 1594 users online  

M16 Steam Boat Bay Seaplane Base
East Gull Lake, Minnesota, USA

GOING TO EAST GULL LAKE?


FAA INFORMATION EFFECTIVE 03 NOVEMBER 2022

Location

FAA Identifier: M16
Lat/Long: 46-23-52.3000N 094-22-15.6000W
46-23.871667N 094-22.260000W
46.3978611,-94.3710000
(estimated)
Elevation: 1197 ft. / 365 m (estimated)
From city: 4 miles W of EAST GULL LAKE, MN
Time zone: UTC -6 (UTC -5 during Daylight Saving Time)
Zip code: 56425

Seaplane Base Operations

Seaplane Base use: Open to the public
Activation date: 12/2014
Control tower: no
ARTCC: MINNEAPOLIS CENTER
FSS: PRINCETON FLIGHT SERVICE STATION
NOTAMs facility: PNM (NOTAM-D service available)
Attendance: UNATNDD
Wind indicator: no
Segmented circle: no

Seaplane Base Communications

CTAF: 122.9
WX ASOS at BRD (10 nm E): 126.775 (218-828-3314)
WX AWOS-3 at SAZ (18 nm W): 118.325 (218-894-3666)
WX AWOS-3 at RYM (18 nm S): 121.575
WX AWOS-3 at PWC (20 nm N): 118.525 (218-587-3420)

Nearby radio navigation aids

NDB name  Hdg/Dist  Freq  Var  ID
LAREW253/14.825103EBR -... .-.
RIPLEY354/19.240403EXCR -..- -.-. .-.

Seaplane Base Services

Parking: buoy
Airframe service: NONE
Powerplant service: NONE
Bottled oxygen: NONE
Bulk oxygen: NONE

Runway Information

Runway 18W/36W

Dimensions: 7657 x 725 ft. / 2334 x 221 m
Surface: water
RUNWAY 18W  RUNWAY 36W
Traffic pattern: leftleft

Seaplane Base Ownership and Management from official FAA records

Ownership: Privately-owned
Owner: CARL BENJAMIN THURINGER
11266 PINE BEACH PENINSULA RD
BRAINERD, MN 56401-2080
Phone 218-855-5910
Manager: CARL BENJAMIN THURINGER
11266 PINE BEACH PENINSULA RD
BRAINERD, MN 56401-2080
Phone 218-855-5910

Seaplane Base Operational Statistics

Aircraft based on the field: 1
Single engine airplanes: 1
    
Aircraft operations: avg 21/month *
60% local general aviation
40% transient general aviation
* for 12-month period ending 21 September 2018

Additional Remarks

FOR CD CTC MINNEAPOLIS ARTCC AT 651-463-5588.

Instrument Procedures

There are no published instrument procedures at M16.

Some nearby airports with instrument procedures:

KBRD - Brainerd Lakes Regional Airport (10 nm E)
KSAZ - Staples Municipal Airport (18 nm W)
KRYM - Ray S Miller Army Airfield (18 nm S)
KPWC - Pine River Regional Airport (20 nm N)
KLXL - Little Falls/Morrison County Airport-Lindbergh Field (27 nm S)
 
Loc | Ops | Rwys | IFR | FBO | Links
Com | Nav | Svcs | Stats | Notes
Aerial photo
No photo
 
Airport distance calculator
Flying to Steam Boat Bay Seaplane Base? Find the distance to fly.

From to M16

Sunrise and sunset
Times for 28-Nov-2022
 Local
(UTC-6)
 Zulu
(UTC)
Morning civil twilight07:0413:04
Sunrise07:3813:38
Sunset16:3322:33
Evening civil twilight17:0723:07

Current date and time
Zulu (UTC)  28-Nov-2022 19:24:44
Local (UTC-6)  28-Nov-2022 13:24:44
 
METAR
KBRD 
10nm E 
281853Z AUTO 17010KT 10SM OVC023 02/M04 A2955 RMK AO2 SLP022 T00171039
KSAZ 
18nm W 
281855Z 19007KT 10SM 02/M03 A2954 RMK AO2
KRYM 
18nm S 
281855Z AUTO 17011KT 10SM SCT024 02/M03 A2954 RMK AO2 SLP020 T00221035
KPWC 
19nm N 
281855Z AUTO 18008KT 10SM OVC018 01/M03 A2959 RMK AO2
TAF
KBRD 
10nm E 
281745Z 2818/2918 16010G18KT 3SM -SN BR SCT025 BKN040 FM282000 18009G17KT P6SM VCSH BKN050 FM282200 20006KT P6SM BKN080 FM291500 29006KT P6SM VCSH BKN050
NOTAMs
Click for the latest NOTAMs
NOTAMs are issued by the DoD/FAA and will open in a separate window not controlled by AirNav.

 

 
 

Would you like to see your business listed on this page?

 If your business provides an interesting product or service to pilots, flight crews, aircraft, or users of the Steam Boat Bay Seaplane Base, you should consider listing it here.  To start the listing process, click on the button below
 
Add a business
 

Other Pages about Steam Boat Bay Seaplane Base

Update a link
 
Copyright © AirNav, LLC. All rights reserved. Privacy Policy  Contact